Location: Home
(42.5358°N, 72.7383°W)
Time: 05:41:11
(UTC-05:00)

A-11 Canister half - Pass Details

Date: 08 December 2021
Orbit: 1524 x 1684 km, 47.3° (Epoch: 17 January)

Event Time Altitude Azimuth Distance (km) Brightness Sun altitude
Exits shadow 02:55:09 52° 55° (NE) 2,008 9.6 -45.7°
Drops below altitude 10° 03:02:26 10° 79° (E) 3,880 11.7 -44.4°
Sets 03:05:34 0° 83° (E) 4,847 12.4 -43.8°
